FW9167 Weather Reports


Display with metric or nautical units.
time (UTC)temp
F
wind
direction
speed
MPH
gust
MPH
rain 1hr
in
rain 24hr
in
rain mn
in
humidity
%
barometer
mb
20260905034602 52 1 3.0 4.0 0.00 0.00 0.00 74 1016.2
20260905033102 53 330 1.0 4.0 0.00 0.00 0.00 72 1016.4
20260905031602 53 318 0.0 6.0 0.00 0.00 0.00 72 1016.2
20260905030101 53 335 3.0 6.0 0.00 0.00 0.00 73 1016.1
20260905023101 53 308 1.0 3.0 0.00 0.00 0.00 73 1016.0
20260905021601 54 319 2.0 4.0 0.00 0.00 0.00 72 1016.0
20260905014602 56 274 0.0 2.0 0.00 0.00 0.00 70 1016.0
20260905013101 57 281 0.0 2.0 0.00 0.00 0.00 67 1015.9
20260905011601 60 259 1.0 2.0 0.00 0.00 0.00 63 1015.9
20260905004603 64 113 1.0 5.0 0.00 0.00 0.00 51 1015.7
20260905003102 65 133 1.0 3.0 0.00 0.00 0.00 49 1015.6
20260905001602 63 110 0.0 1.0 0.00 0.00 0.00 53 1015.6
20260904234602 62 117 0.0 2.0 0.00 0.00 0.00 52 1015.8
20260904233101 63 107 0.0 4.0 0.00 0.00 0.00 50 1015.8
20260904231601 63 114 0.0 4.0 0.00 0.00 0.00 52 1015.8
20260904224602 65 107 0.0 2.0 0.00 0.00 0.00 46 1015.8
20260904223102 65 136 0.0 2.0 0.00 0.00 0.00 43 1015.7
20260904221606 66 162 0.0 5.0 0.00 0.00 0.00 42 1015.8
20260904214602 67 215 0.0 5.0 0.00 0.00 0.00 42 1015.8
20260904213106 65 204 0.0 2.0 0.00 0.00 0.00 46 1015.7
20260904211606 63 346 0.0 5.0 0.00 0.00 0.00 44 1015.7
20260904204602 64 135 1.0 6.0 0.00 0.00 0.00 43 1015.4
20260904203106 64 295 2.0 5.0 0.00 0.00 0.00 46 1015.5
20260904201602 64 138 2.0 5.0 0.00 0.00 0.00 46 1015.6
20260904194603 59 300 2.0 4.0 0.00 0.00 0.00 57 1015.8
20260904193101 59 25 0.0 4.0 0.00 0.00 0.00 57 1016.0
20260904191606 59 117 0.0 3.0 0.00 0.00 0.00 62 1016.4
20260904190104 58 232 0.0 3.0 0.00 0.00 0.00 62 1016.5
20260904184602 59 200 1.0 4.0 0.00 0.00 0.00 60 1016.5
20260904183102 59 119 0.0 7.0 0.00 0.00 0.00 65 1016.7
20260904181603 58 235 3.0 5.0 0.00 0.00 0.00 66 1016.7
20260904174602 56 156 0.0 3.0 0.00 0.00 0.00 70 1016.4
20260904173104 56 226 1.0 4.0 0.00 0.00 0.00 69 1016.4
20260904171603 55 145 1.0 2.0 0.00 0.00 0.00 73 1016.3
20260904170104 55 34 0.0 3.0 0.00 0.00 0.00 71 1016.3
20260904164604 54 246 0.0 2.0 0.00 0.00 0.00 79 1016.2
20260904161603 49 233 0.0 1.0 0.00 0.00 0.00 90 1016.3
20260904154603 47 323 2.0 2.0 0.00 0.00 0.00 96 1016.1
20260904153102 46 314 0.0 2.0 0.00 0.00 0.00 97 1016.0
20260904151602 45 287 0.0 2.0 0.00 0.00 0.00 97 1016.1
20260904150104 44 250 1.0 1.0 0.00 0.00 0.00 97 1016.0
20260904144601 43 324 0.0 0.0 0.00 0.00 0.00 97 1015.8
20260904143102 42 324 0.0 1.0 0.00 0.00 0.00 97 1015.6
20260904141605 40 321 0.0 2.0 0.00 0.00 0.00 97 1015.4
20260904134602 40 340 0.0 1.0 0.00 0.00 0.00 96 1015.2
20260904133102 41 300 0.0 3.0 0.00 0.00 0.00 96 1014.9
20260904131603 41 335 0.0 2.0 0.00 0.00 0.00 96 1014.8
20260904130103 42 350 0.0 1.0 0.00 0.00 0.00 96 1014.6
20260904124604 42 257 1.0 1.0 0.00 0.00 0.00 96 1014.4
20260904123104 43 271 0.0 0.0 0.00 0.00 0.00 97 1014.4
20260904121603 43 271 0.0 1.0 0.00 0.00 0.00 97 1014.4
20260904120106 43 256 1.0 2.0 0.00 0.00 0.00 96 1014.4
20260904114602 43 267 0.0 1.0 0.00 0.00 0.00 96 1014.1
20260904113104 44 24 0.0 2.0 0.00 0.00 0.00 96 1014.1
20260904111602 44 226 0.0 1.0 0.00 0.00 0.00 96 1014.4
20260904104602 44 20 1.0 3.0 0.00 0.00 0.00 96 1013.7
20260904103102 44 224 0.0 1.0 0.00 0.00 0.00 96 1014.1
20260904101601 44 224 0.0 1.0 0.00 0.00 0.00 96 1013.8
20260904094607 44 323 0.0 1.0 0.00 0.00 0.00 96 1013.4
20260904093102 44 323 0.0 1.0 0.00 0.00 0.00 96 1013.4
20260904091601 44 323 0.0 0.0 0.00 0.00 0.00 96 1013.6
20260904084602 44 111 0.0 1.0 0.00 0.00 0.00 96 1013.2
20260904083102 44 111 0.0 1.0 0.00 0.00 0.00 96 1013.2
20260904081602 44 225 0.0 0.0 0.00 0.00 0.00 96 1012.9
20260904080105 44 225 0.0 1.0 0.00 0.00 0.00 96 1012.9
20260904074602 44 127 0.0 2.0 0.00 0.00 0.00 96 1012.9
20260904073101 44 239 0.0 1.0 0.00 0.00 0.00 96 1012.7
20260904071602 44 226 1.0 2.0 0.00 0.00 0.00 96 1012.7
20260904070106 45 219 0.0 1.0 0.00 0.00 0.00 96 1012.7
20260904064603 45 98 0.0 1.0 0.00 0.00 1.71 96 1013.1
20260904063106 45 131 0.0 1.0 0.00 0.00 1.71 96 1013.0
20260904061604 45 69 0.0 5.0 0.00 0.00 1.71 95 1012.7
20260904060105 45 56 0.0 3.0 0.00 0.00 1.70 95 1013.0
20260904054603 45 98 0.0 5.0 0.00 0.00 1.70 95 1012.9
20260904053107 46 31 0.0 4.0 0.00 0.00 1.68 95 1013.1
20260904051603 46 136 0.0 1.0 0.00 0.00 1.62 95 1013.2
20260904050106 46 105 0.0 2.0 0.00 0.00 1.55 95 1013.4
20260904044603 46 94 0.0 2.0 0.00 0.00 1.53 95 1013.2
20260904043103 46 38 0.0 1.0 0.00 0.00 1.50 94 1013.1